Probability
0 0 0 0 0 0 0 0 0 0 0 0 0 0 0 0 0 0 0 0 0 1 4 9 17 23 33 44 46 41 37 47 70 90 98 100 99 98 97 91 77 61 52 50
0 0 0 0 0 0 0 0 0 0 0 0 0 0 0 0 0 0 0 0 0 0 2 6 11 17 28 42 49 48 45 51 67 86 96 99 99 99 98 96 87 74 59 50
0 0 0 0 0 0 0 0 0 0 0 0 0 0 0 0 0 0 0 0 0 0 1 2 5 9 16 28 38 45 52 59 69 82 93 97 98 98 99 98 93 81 64 53
0 0 0 0 0 0 0 0 0 0 0 0 0 0 1 2 1 0 0 0 0 0 0 1 2 3 5 11 18 27 40 56 68 78 86 93 95 94 93 93 88 77 65 57
0 0 0 0 0 0 0 0 0 0 0 0 0 0 2 4 2 0 0 0 0 0 0 0 0 0 0 3 6 10 19 36 56 68 76 85 88 83 79 78 74 68 61 58
0 0 0 0 0 0 0 0 0 0 0 0 0 0 1 2 1 0 0 0 0 0 0 0 0 0 0 0 1 2 6 20 40 54 62 68 68 62 57 54 51 48 46 46
0 0 0 0 0 0 0 0 0 0 0 0 0 0 0 0 0 0 0 0 0 0 0 0 0 0 0 0 0 0 3 12 25 34 39 41 39 35 32 30 28 27 26 25
0 0 0 0 0 0 0 0 0 0 0 0 0 0 0 0 0 0 0 0 0 0 1 0 0 0 0 0 0 0 1 6 12 14 14 15 15 14 14 15 15 13 10 8
0 0 0 0 0 0 0 0 0 0 0 0 0 0 0 0 0 0 0 0 0 0 0 0 0 0 0 0 0 0 0 2 4 4 3 3 4 5 6 6 6 4 2 2
0 0 0 0 0 0 0 0 0 0 0 0 0 0 0 0 0 0 0 0 0 0 0 0 0 0 0 0 0 0 0 0 1 1 1 1 1 1 2 1 1 0 0 1
0 0 0 0 0 0 0 0 0 0 0 0 0 0 0 0 0 0 0 0 0 0 0 0 0 0 0 0 0 0 0 0 0 0 0 0 0 0 0 0 0 0 0 0
0 0 0 0 0 0 0 0 0 0 0 0 0 0 0 0 0 0 0 0 0 0 0 0 0 0 0 0 0 0 0 0 0 0 0 0 0 0 0 0 0 0 0 0
0 0 0 0 0 0 0 0 0 0 0 0 0 0 0 0 0 0 0 0 0 0 0 0 0 0 0 0 0 0 0 0 0 0 0 0 0 0 0 0 0 0 0 0
0 0 0 0 0 0 0 0 0 0 0 0 0 0 0 0 0 0 0 0 0 0 0 0 0 0 0 0 0 0 0 0 0 0 0 0 0 0 0 0 0 0 0 0
0 0 0 0 0 0 0 0 0 0 0 0 0 0 0 0 0 0 0 0 0 0 0 0 0 0 0 0 0 0 0 0 0 0 0 0 0 0 0 0 0 0 0 0
0 0 0 0 0 0 0 0 0 0 0 0 0 0 0 0 0 0 0 0 0 0 0 0 0 0 0 0 0 0 0 0 0 0 0 0 0 0 0 0 0 0 0 0
0 0 0 0 0 0 0 0 0 0 0 0 0 0 0 0 0 0 0 0 0 0 0 0 0 0 0 0 0 0 0 0 0 0 0 0 0 0 0 0 0 0 0 0
0 0 0 0 0 0 0 0 0 0 0 0 0 0 0 0 0 0 0 0 0 0 0 0 0 0 0 0 0 0 0 0 0 0 0 0 0 0 0 0 0 0 0 0
0 0 0 0 0 0 0 0 0 0 0 0 0 0 0 0 0 0 0 0 0 0 0 0 0 0 0 0 0 0 0 0 0 0 0 0 0 0 0 0 0 0 0 0
0 0 0 0 0 0 0 0 0 0 0 0 0 0 0 0 0 0 0 0 0 0 0 0 0 0 0 0 0 0 0 0 0 0 0 0 0 0 0 0 0 0 0 0
0 0 0 0 0 0 0 0 0 0 0 0 0 0 0 0 0 0 0 0 0 0 0 0 0 0 0 0 0 0 0 0 0 0 0 0 0 0 0 0 0 0 0 0
0 0 0 0 0 0 0 0 0 0 0 0 0 0 0 0 0 0 0 0 0 0 0 0 0 0 0 0 0 0 0 0 0 0 0 0 0 0 0 0 0 0 0 0
0 0 0 0 0 0 0 0 0 0 0 0 0 0 0 0 0 0 0 0 0 0 0 0 0 0 0 0 0 0 0 0 0 0 0 0 0 0 0 0 0 0 0 0
0 0 0 0 0 0 0 0 0 0 0 0 0 0 0 0 0 0 0 0 0 0 0 0 0 0 0 0 0 0 0 0 0 0 0 0 0 0 0 0 0 0 0 0
0 0 0 0 0 0 0 0 0 0 0 0 0 0 0 0 0 0 0 0 0 0 0 0 0 0 0 0 0 0 0 0 0 0 0 0 0 0 0 0 0 0 0 0
0 0 0 0 0 0 0 0 0 0 0 0 0 0 0 0 0 0 0 0 0 0 0 0 0 0 0 0 0 0 0 0 0 0 0 0 0 0 0 0 0 0 0 0
Wind_Speed
3 5 4 7 8 10 12 14 14 9 2 6 9 6 3 6 2 1 3 4 6 8 10 10 11 11 10 8 7 7 7 6 5 5 5 5 5 5 5 5 7 6 4 4
3 7 10 10 10 10 13 14 14 10 6 6 8 9 5 5 5 3 3 5 6 8 8 9 9 11 12 11 11 11 9 7 6 5 5 5 6 5 5 5 5 6 5 4
8 10 10 10 11 11 13 14 15 15 13 11 12 14 11 8 8 6 2 4 8 8 9 9 9 9 9 10 12 12 13 12 7 6 5 4 4 4 4 5 4 4 5 5
7 12 13 12 13 14 13 15 16 16 15 13 15 12 6 5 8 5 6 7 7 7 8 8 9 9 10 11 11 13 13 13 11 6 4 7 6 5 5 4 4 3 3 4
11 12 12 13 14 14 13 15 17 18 15 16 15 13 4 8 10 12 11 10 9 9 9 9 9 10 10 11 10 10 11 11 10 7 3 4 5 4 4 5 6 4 2 3
11 10 10 11 13 12 14 15 17 14 10 11 9 8 5 9 11 12 14 14 13 12 11 11 11 11 11 11 10 10 10 10 9 8 4 3 6 6 7 6 6 5 3 2
10 13 12 12 14 13 15 13 7 6 3 3 6 5 8 11 14 13 14 15 15 14 12 12 12 12 12 13 12 11 10 9 9 8 8 7 7 7 7 6 5 4 3 2
3 8 12 11 12 12 14 12 8 7 7 8 3 5 7 11 14 15 15 15 15 15 13 12 12 11 12 13 12 11 10 9 9 9 9 9 9 7 6 7 6 4 3 2
7 7 9 8 10 12 11 10 10 8 10 8 4 7 6 15 18 19 18 17 16 15 14 12 11 11 11 11 11 10 9 9 10 10 10 10 10 9 8 7 6 4 2 2
8 3 7 6 8 13 11 10 6 7 7 7 6 7 10 20 21 19 18 17 16 14 14 13 10 10 9 8 9 9 9 9 9 9 8 8 8 8 7 6 5 4 3 2
9 4 7 7 10 13 12 12 8 6 5 5 7 5 11 16 17 17 16 15 14 13 13 12 10 9 8 7 7 8 8 9 8 8 7 7 6 5 4 3 2 1 1 2
6 6 5 10 8 8 10 11 9 5 6 5 4 5 13 14 13 13 14 13 13 12 12 11 11 9 8 8 7 7 6 7 6 6 5 5 3 3 2 1 1 2 2 3
8 8 2 6 4 10 10 13 10 5 4 5 5 6 10 10 11 11 11 11 10 9 10 9 8 8 8 7 6 6 5 5 4 4 4 3 2 2 2 3 3 3 4 4
6 6 10 8 6 6 8 11 12 9 5 4 4 5 8 9 9 10 9 9 8 7 6 6 6 6 6 5 5 5 4 3 2 2 2 2 2 2 2 2 3 3 3 4
7 7 10 8 5 5 8 9 10 10 7 5 1 3 6 6 6 8 7 6 7 8 8 7 6 5 5 5 5 5 5 4 4 4 4 4 3 3 3 4 4 5 6 7
5 2 4 6 4 3 7 8 8 7 6 4 3 4 4 4 4 5 7 8 9 9 9 8 8 7 6 6 5 5 5 5 5 6 7 7 7 7 6 6 6 7 8 8
1 4 3 4 5 3 3 6 5 5 5 4 5 4 4 4 6 8 8 9 10 9 9 8 7 8 6 5 6 6 5 6 7 7 7 7 7 7 7 7 7 6 6 6
5 4 3 2 4 2 7 7 6 3 3 1 2 2 1 1 3 5 6 7 8 9 8 8 7 7 8 6 5 6 6 7 7 7 6 6 6 6 6 6 6 7 5 5
4 4 5 3 2 5 7 7 5 1 3 3 2 4 3 2 5 9 9 8 7 7 7 6 6 6 7 7 6 7 8 7 7 6 6 6 6 6 6 6 5 5 5 5
2 3 5 4 3 2 7 10 6 2 3 4 2 5 7 7 4 6 7 6 6 6 6 6 5 5 5 6 5 5 7 7 6 6 5 5 5 5 6 6 6 5 5 4
4 5 4 5 3 6 10 10 6 2 5 6 4 6 8 8 6 5 5 6 4 4 4 6 5 4 4 5 5 5 6 5 4 3 4 4 5 4 5 5 5 5 4 5
4 2 2 3 2 4 11 8 3 5 7 5 5 6 5 5 5 5 5 4 4 4 4 5 5 5 4 3 4 5 4 2 2 2 1 1 2 4 5 4 4 5 5 5
2 2 3 3 4 7 8 5 6 4 5 6 5 4 2 4 5 5 4 4 4 5 4 4 5 6 5 3 3 3 3 2 1 2 1 1 2 4 4 5 5 4 5 4
3 5 1 2 5 9 8 7 7 4 4 6 4 3 3 4 4 4 4 4 4 5 4 4 5 6 6 4 3 3 3 3 2 2 2 3 4 4 5 4 4 5 5 5
1 4 3 4 4 8 8 8 9 8 6 6 4 3 3 3 4 4 4 4 4 4 4 5 5 5 6 5 5 5 4 4 3 1 3 4 4 4 5 5 5 5 5 4
5 6 4 2 6 6 10 11 11 10 8 7 6 5 3 2 3 4 4 3 4 4 5 5 6 6 6 6 6 5 5 4 3 2 3 3 3 3 4 5 4 7 5 5
Wind_Direction
231 282 17 8 349 328 312 299 298 304 234 240 276 286 155 133 122 27 1 12 19 20 10 15 1 352 347 336 316 293 272 233 215 197 185 174 176 171 164 165 171 171 165 149
245 44 12 341 320 317 312 306 303 299 307 298 288 279 263 176 163 96 4 6 25 27 10 12 6 1 352 343 336 318 302 275 235 214 198 190 173 172 164 159 158 155 162 164
39 39 358 335 333 350 328 326 337 328 318 290 274 267 250 198 156 134 99 31 29 20 9 7 4 3 348 343 340 333 327 316 286 231 196 189 176 165 157 162 156 161 164 164
43 28 5 353 360 351 317 333 327 311 301 288 281 282 267 162 130 80 42 29 28 19 14 10 6 2 353 349 342 334 329 326 316 297 215 184 173 175 168 154 139 149 159 150
61 33 19 4 346 326 317 314 297 285 278 277 277 275 307 47 44 22 2 358 12 18 15 16 12 6 0 355 349 339 333 331 327 318 281 188 157 147 135 132 133 128 109 105
85 65 45 2 332 329 324 310 291 270 252 260 290 293 45 27 14 7 348 350 4 11 13 19 17 11 5 359 355 350 345 344 346 351 5 106 127 128 122 123 127 117 100 78
118 77 48 15 359 353 342 337 329 338 336 336 11 38 53 14 7 359 346 350 359 6 12 18 18 11 6 4 360 356 358 1 9 25 41 61 86 96 104 109 108 101 95 76
7 64 40 17 15 347 344 354 357 329 330 321 341 84 69 16 354 350 350 354 357 1 5 17 20 15 10 6 4 4 9 21 29 41 50 59 70 75 77 83 89 86 82 73
3 77 62 31 27 17 357 360 333 309 307 309 58 95 64 8 357 352 351 352 354 356 0 12 16 15 12 8 8 11 20 35 43 50 56 58 63 70 74 73 72 71 54 47
326 91 89 52 31 34 17 354 346 341 341 332 8 54 5 352 348 346 347 349 351 356 359 4 7 8 9 7 7 16 27 39 48 54 60 65 63 65 67 67 63 54 37 19
336 322 113 69 36 21 15 11 360 342 9 352 340 32 12 347 345 344 347 352 355 359 1 1 2 2 360 9 15 21 26 37 44 51 58 63 61 59 55 56 50 31 336 302
10 313 82 85 84 53 31 14 8 8 15 12 342 16 6 347 346 347 350 354 359 4 2 0 1 5 7 18 18 20 29 37 38 40 46 49 42 35 14 334 285 271 267 267
341 329 54 133 140 44 28 22 21 42 52 30 8 350 344 340 347 350 352 352 352 355 0 0 1 8 15 20 19 26 31 32 27 23 21 18 2 334 307 292 279 270 269 267
283 36 48 60 61 25 28 33 35 45 51 52 31 329 324 334 336 338 339 339 345 352 0 2 2 14 28 33 35 36 38 28 14 0 5 13 358 318 302 302 303 302 296 288
303 74 87 94 95 69 57 54 55 57 61 69 58 342 317 310 309 315 322 334 4 17 19 18 14 19 30 39 48 43 43 42 40 37 28 21 20 21 16 18 12 15 17 19
339 65 135 134 131 102 82 75 71 63 58 66 63 17 315 290 305 342 357 10 27 28 21 20 19 18 33 40 50 51 46 43 46 45 39 32 33 33 34 37 33 36 38 34
295 305 312 138 149 208 106 86 83 70 59 33 25 351 336 18 31 24 16 18 26 27 21 15 19 13 21 47 53 59 59 50 47 45 45 40 36 35 31 32 32 40 51 49
328 332 296 266 190 58 95 111 119 120 117 132 317 317 320 80 102 57 30 24 22 18 17 10 20 22 11 24 52 64 59 55 48 40 38 46 38 32 28 31 36 28 32 54
326 318 296 333 53 128 149 161 179 211 108 121 13 9 16 174 123 61 36 31 28 15 7 357 13 24 10 5 16 49 56 50 44 39 32 31 35 30 25 25 31 33 25 35
218 265 285 293 291 64 123 134 150 222 164 131 56 31 28 37 54 41 31 30 26 16 359 347 357 22 358 341 349 52 62 55 41 30 32 24 21 25 27 24 22 24 20 20
205 200 245 289 305 96 118 131 167 242 113 116 79 43 38 43 41 33 29 28 15 19 5 347 347 356 344 343 2 48 61 67 70 40 32 21 5 16 45 32 26 24 22 16
322 309 293 282 283 125 139 158 189 97 115 120 91 63 44 38 39 32 34 27 4 7 15 351 338 329 315 358 13 33 59 76 121 129 78 24 30 31 38 44 43 32 16 22
224 337 346 354 58 109 155 153 102 126 135 109 91 80 55 40 41 27 33 31 3 2 16 350 327 321 331 14 24 14 40 24 57 108 98 43 76 78 49 44 45 38 28 25
126 101 241 263 172 163 179 147 141 172 122 108 110 104 61 44 38 22 35 33 7 1 0 342 341 349 339 339 1 41 33 3 24 73 76 76 69 83 76 50 44 43 28 21
74 149 218 243 160 152 176 178 168 172 157 142 141 118 77 42 33 19 35 27 359 352 351 355 356 340 335 355 19 46 26 355 347 41 83 86 78 76 88 71 45 48 59 41
199 180 203 242 168 172 182 181 176 172 175 166 162 146 130 77 30 15 26 11 352 352 3 4 351 342 351 2 20 30 3 346 354 47 72 72 80 78 108 118 92 48 61 54